,,PA_Meas_PMT16A,,PR_Meas_QMR101_102,,RH_Meas_QMH101,,SR_Meas_QMS101,,TA_Meas_QMH101,,GenWind,,GenWind,
time,status,PA,status,PR,status,RH,status,SR,status,TA,status,DirAvg,status,SpdAvg,
2017-01-25, 14:32:04,INVALID - VALUE NOT AVAILABLE,0,INVALID - VALUE NOT AVAILABLE,0,INVALID - VALUE NOT AVAILABLE,0,INVALID - VALUE NOT AVAILABLE,0,INVALID - VALUE NOT AVAILABLE,0,INVALID,360,INVALID,0,
2017-01-25, 15:05:04,VALID,919.57,VALID,0,VALID,86.5105,VALID,134.731,VALID,19.6638,VALID,143,VALID,0.427344,
2017-01-25, 15:06:04,VALID,919.553,VALID,0,VALID,85.3441,VALID,137.417,VALID,19.7238,VALID,147,VALID,0.273047,
2017-01-25, 15:07:04,VALID,919.594,VALID,0,VALID,85.3289,VALID,140.211,VALID,19.7238,VALID,139,VALID,0.174219,
2017-01-25, 15:08:04,VALID,919.591,VALID,0,VALID,85.6948,VALID,143.004,VALID,19.7628,VALID,133,VALID,0,
2017-01-25, 15:09:04,VALID,919.637,VALID,0,VALID,86.541,VALID,145.475,VALID,19.8018,VALID,132,VALID,0.00078125,
2017-01-25, 15:10:04,VALID,919.607,VALID,0,VALID,84.9782,VALID,148.054,VALID,19.8018,VALID,136,VALID,0.0945313,
2017-01-25, 15:11:04,VALID,919.633,VALID,0,VALID,85.9998,VALID,150.847,VALID,19.8798,VALID,135,VALID,0,
2017-01-25, 15:12:04,VALID,919.63,VALID,0,VALID,86.1751,VALID,153.426,VALID,19.9188,VALID,136,VALID,0,
2017-01-25, 15:13:04,VALID,919.635,VALID,0,VALID,84.7953,VALID,155.897,VALID,19.9383,VALID,153,VALID,0,
2017-01-25, 15:14:04,VALID,919.658,VALID,0,VALID,85.3441,VALID,158.153,VALID,19.9368,VALID,147,VALID,0,
2017-01-25, 15:15:04,VALID,919.639,VALID,0,VALID,85.5271,VALID,160.732,VALID,19.9563,VALID,133,VALID,0.0304688,
2017-01-25, 15:16:04,VALID,919.624,VALID,0,VALID,85.3213,VALID,163.418,VALID,20.0163,VALID,144,VALID,0,
2017-01-25, 15:17:04,VALID,919.626,VALID,0,VALID,84.3912,VALID,165.889,VALID,19.9953,VALID,154,VALID,1.21875,
2017-01-25, 15:18:04,VALID,919.643,VALID,0,VALID,83.7661,VALID,168.575,VALID,19.9968,VALID,145,VALID,1.54922,
2017-01-25, 15:19:04,VALID,919.646,VALID,0,VALID,84.4522,VALID,171.261,VALID,19.9758,VALID,148,VALID,1.61484,
2017-01-25, 15:20:04,VALID,919.623,VALID,0,VALID,84.2769,VALID,174.162,VALID,20.0148,VALID,141,VALID,1.64922,
2017-01-25, 15:21:04,VALID,919.638,VALID,0,VALID,85.5576,VALID,177.815,VALID,20.0538,VALID,156,VALID,0.356641,
2017-01-25, 15:22:04,VALID,919.63,VALID,0,VALID,84.8867,VALID,182.113,VALID,20.0538,VALID,158,VALID,0.787891,
2017-01-25, 15:23:04,VALID,919.601,VALID,0,VALID,85.3899,VALID,186.84,VALID,20.0343,VALID,147,VALID,1.33398,
2017-01-25, 15:24:04,VALID,919.622,VALID,0,VALID,85.1002,VALID,190.923,VALID,20.0133,VALID,148,VALID,0.998047,
2017-01-25, 15:25:04,VALID,919.601,VALID,0,VALID,84.8715,VALID,195.543,VALID,20.0148,VALID,149,VALID,1.01406,
2017-01-25, 15:26:04,VALID,919.58,VALID,0,VALID,86.4572,VALID,199.518,VALID,20.0538,VALID,149,VALID,0.697656,
2017-01-25, 15:27:04,VALID,919.607,VALID,0,VALID,86.3504,VALID,203.279,VALID,20.0928,VALID,147,VALID,0.00195313,
2017-01-25, 15:28:04,VALID,919.621,VALID,0,VALID,85.1231,VALID,208.328,VALID,20.1318,VALID,148,VALID,0.912891,
2017-01-25, 15:29:04,VALID,919.664,VALID,0,VALID,85.4585,VALID,217.891,VALID,20.1513,VALID,142,VALID,0.411719,
2017-01-25, 15:30:04,VALID,919.677,VALID,0,VALID,85.1993,VALID,231.536,VALID,20.2309,VALID,151,VALID,0.460938,
2017-01-25, 15:31:04,VALID,919.638,VALID,0,VALID,84.7876,VALID,224.767,VALID,20.1903,VALID,143,VALID,1.39922,
2017-01-25, 15:32:04,VALID,919.636,VALID,0,VALID,84.7343,VALID,222.296,VALID,20.2489,VALID,154,VALID,1.24844,
2017-01-25, 15:33:04,VALID,919.655,VALID,0,VALID,83.4688,VALID,224.23,VALID,20.3089,VALID,158,VALID,1.39883,
2017-01-25, 15:34:04,VALID,919.671,VALID,0,VALID,83.3849,VALID,225.197,VALID,20.3074,VALID,162,VALID,1.83086,
2017-01-25, 15:35:04,VALID,919.634,VALID,0,VALID,82.7446,VALID,224.337,VALID,20.3643,VALID,153,VALID,2.02578,
2017-01-25, 15:36:04,VALID,919.683,VALID,0,VALID,83.1029,VALID,223.692,VALID,20.4228,VALID,155,VALID,1.43477,
2017-01-25, 15:37:04,VALID,919.695,VALID,0,VALID,82.3405,VALID,226.056,VALID,20.4618,VALID,153,VALID,1.39609,
2017-01-25, 15:38:04,VALID,919.728,VALID,0,VALID,83.1562,VALID,228.957,VALID,20.5009,VALID,145,VALID,1.62344,
2017-01-25, 15:39:04,VALID,919.705,VALID,0,VALID,83.3239,VALID,231.965,VALID,20.5009,VALID,150,VALID,1.40273,
2017-01-25, 15:40:04,VALID,919.693,VALID,0,VALID,82.6759,VALID,235.833,VALID,20.5399,VALID,153,VALID,1.92969,
2017-01-25, 15:41:04,VALID,919.698,VALID,0,VALID,81.4028,VALID,239.916,VALID,20.5414,VALID,136,VALID,2.04336,
2017-01-25, 15:42:04,VALID,919.707,VALID,0,VALID,83.8195,VALID,243.891,VALID,20.6585,VALID,147,VALID,1.62891,
2017-01-25, 15:43:04,VALID,919.67,VALID,0,VALID,81.6468,VALID,248.082,VALID,20.6585,VALID,153,VALID,2.31836,
2017-01-25, 15:44:04,VALID,919.68,VALID,0,VALID,80.793,VALID,251.842,VALID,20.6975,VALID,150,VALID,1.83633,
2017-01-25, 15:45:04,VALID,919.624,VALID,0,VALID,82.3481,VALID,254.421,VALID,20.7154,VALID,161,VALID,1.61797,
2017-01-25, 15:46:04,VALID,919.669,VALID,0,VALID,80.732,VALID,256.999,VALID,20.7365,VALID,153,VALID,2.11484,
2017-01-25, 15:47:04,VALID,919.67,VALID,0,VALID,83.08,VALID,260.115,VALID,20.7739,VALID,155,VALID,1.0418,
2017-01-25, 15:48:04,VALID,919.667,VALID,0,VALID,81.4562,VALID,264.09,VALID,20.8324,VALID,152,VALID,1.41133,
2017-01-25, 15:49:04,VALID,919.702,VALID,0,VALID,82.1728,VALID,266.776,VALID,20.9105,VALID,150,VALID,0.307031,
2017-01-25, 15:50:04,VALID,919.676,VALID,0,VALID,81.258,VALID,270.429,VALID,20.969,VALID,140,VALID,1.29609,
2017-01-25, 15:51:04,VALID,919.682,VALID,0,VALID,82.1499,VALID,275.264,VALID,20.969,VALID,149,VALID,1.84922,
2017-01-25, 15:52:04,VALID,919.701,VALID,0,VALID,80.8616,VALID,286.331,VALID,21.008,VALID,136,VALID,1.98008,
2017-01-25, 15:53:04,VALID,919.711,VALID,0,VALID,79.5732,VALID,288.265,VALID,21.008,VALID,154,VALID,2.45156,
2017-01-25, 15:54:04,VALID,919.736,VALID,0,VALID,80.8768,VALID,292.562,VALID,21.008,VALID,145,VALID,1.58242,
2017-01-25, 15:55:04,VALID,919.714,VALID,0,VALID,80.1678,VALID,298.364,VALID,21.0275,VALID,154,VALID,1.72773,
2017-01-25, 15:56:04,VALID,919.772,VALID,0,VALID,79.0853,VALID,312.117,VALID,21.0665,VALID,157,VALID,1.85742,
2017-01-25, 15:57:04,VALID,919.747,VALID,0,VALID,79.4894,VALID,351.118,VALID,21.086,VALID,156,VALID,1.95938,
2017-01-25, 15:58:04,VALID,919.768,VALID,0,VALID,78.7118,VALID,363.581,VALID,21.164,VALID,153,VALID,1.70781,
2017-01-25, 15:59:04,VALID,919.771,VALID,0,VALID,79.3293,VALID,408.276,VALID,21.2616,VALID,150,VALID,1.78086,
2017-01-25, 16:00:04,VALID,919.744,VALID,0,VALID,78.5593,VALID,385.821,VALID,21.3396,VALID,160,VALID,1.52305,
2017-01-25, 16:01:04,VALID,919.804,VALID,0,VALID,78.7041,VALID,351.44,VALID,21.3981,VALID,153,VALID,1.19062,
2017-01-25, 16:02:04,VALID,919.786,VALID,0,VALID,77.4463,VALID,386.681,VALID,21.4941,VALID,157,VALID,1.50391,
2017-01-25, 16:03:04,VALID,919.787,VALID,0,VALID,78.323,VALID,352.085,VALID,21.6518,VALID,161,VALID,0.364062,
2017-01-25, 16:04:04,VALID,919.834,VALID,0,VALID,77.4844,VALID,373.143,VALID,21.7867,VALID,170,VALID,0.130859,
2017-01-25, 16:05:04,VALID,919.825,VALID,0,VALID,75.5176,VALID,347.572,VALID,21.8842,VALID,140,VALID,0.391016,
2017-01-25, 16:06:04,VALID,919.817,VALID,0,VALID,77.3167,VALID,340.481,VALID,22.0794,VALID,156,VALID,0,
2017-01-25, 16:07:04,VALID,919.817,VALID,0,VALID,75.7844,VALID,346.605,VALID,22.1964,VALID,149,VALID,0,
2017-01-25, 16:08:04,VALID,919.802,VALID,0,VALID,74.435,VALID,358.209,VALID,22.2354,VALID,161,VALID,0.932031,
2017-01-25, 16:09:04,VALID,919.832,VALID,0,VALID,74.0996,VALID,385.499,VALID,22.1574,VALID,157,VALID,1.46445,
2017-01-25, 16:10:04,VALID,919.847,VALID,0,VALID,72.5444,VALID,383.028,VALID,22.1769,VALID,148,VALID,2.12891,
2017-01-25, 16:11:04,VALID,919.867,VALID,0,VALID,75.2279,VALID,424.07,VALID,22.1574,VALID,161,VALID,1.60977,
2017-01-25, 16:12:04,VALID,919.81,VALID,0,VALID,73.3525,VALID,518.941,VALID,22.1184,VALID,155,VALID,1.57734,
2017-01-25, 16:13:04,VALID,919.882,VALID,0,VALID,74.9992,VALID,418.591,VALID,22.0972,VALID,160,VALID,1.68477,
2017-01-25, 16:14:04,VALID,919.891,VALID,0,VALID,75.083,VALID,414.401,VALID,22.2338,VALID,155,VALID,0.203906,
2017-01-25, 16:15:04,VALID,919.881,VALID,0,VALID,73.9319,VALID,470.377,VALID,22.5086,VALID,172,VALID,0,
2017-01-25, 16:16:04,VALID,919.897,VALID,0,VALID,71.7821,VALID,437.715,VALID,22.6257,VALID,149,VALID,1.3293,
2017-01-25, 16:17:04,VALID,919.886,VALID,0,VALID,72.0108,VALID,470.055,VALID,22.5281,VALID,150,VALID,2.17812,
2017-01-25, 16:18:04,VALID,919.869,VALID,0,VALID,72.0565,VALID,519.8,VALID,22.4306,VALID,150,VALID,2.18789,
2017-01-25, 16:19:04,VALID,919.904,VALID,0,VALID,72.0794,VALID,464.468,VALID,22.4501,VALID,156,VALID,1.68867,
2017-01-25, 16:20:04,VALID,919.913,VALID,0,VALID,75.2584,VALID,361.11,VALID,22.5477,VALID,157,VALID,0.0203125,
2017-01-25, 16:21:04,VALID,919.896,VALID,0,VALID,75.548,VALID,360.68,VALID,22.5655,VALID,151,VALID,1.71211,
2017-01-25, 16:22:04,VALID,919.899,VALID,0,VALID,71.2789,VALID,428.26,VALID,22.6257,VALID,138,VALID,2.02578,
2017-01-25, 16:23:04,VALID,919.893,VALID,0,VALID,72.5825,VALID,462.534,VALID,22.7021,VALID,160,VALID,0.541406,
2017-01-25, 16:24:04,VALID,919.938,VALID,0,VALID,71.561,VALID,409.995,VALID,22.9362,VALID,155,VALID,0,
2017-01-25, 16:25:04,VALID,919.916,VALID,0,VALID,69.7238,VALID,415.905,VALID,23.1119,VALID,164,VALID,1.08633,
2017-01-25, 16:26:04,VALID,919.931,VALID,0,VALID,69.5027,VALID,454.046,VALID,23.2307,VALID,156,VALID,0,
2017-01-25, 16:27:04,VALID,919.932,VALID,0,VALID,70.2117,VALID,438.252,VALID,23.3656,VALID,126,VALID,0,
2017-01-25, 16:28:04,VALID,919.899,VALID,0,VALID,67.9551,VALID,409.458,VALID,23.4437,VALID,162,VALID,1.85859,
2017-01-25, 16:29:04,VALID,919.917,VALID,0,VALID,68.3134,VALID,393.449,VALID,23.3478,VALID,157,VALID,1.5668,
2017-01-25, 16:30:04,VALID,919.92,VALID,0,VALID,68.8776,VALID,366.374,VALID,23.2307,VALID,150,VALID,0.699609,
2017-01-25, 16:31:04,VALID,919.889,VALID,0,VALID,70.1202,VALID,343.489,VALID,23.2112,VALID,154,VALID,1.675,
2017-01-25, 16:32:04,VALID,919.879,VALID,0,VALID,69.4646,VALID,331.671,VALID,23.1722,VALID,139,VALID,0.0289063,
2017-01-25, 16:33:04,VALID,919.89,VALID,0,VALID,68.6946,VALID,321.034,VALID,23.2112,VALID,154,VALID,0,
2017-01-25, 16:34:04,VALID,919.89,VALID,0,VALID,69.0605,VALID,316.951,VALID,23.2112,VALID,165,VALID,0,
2017-01-25, 16:35:04,VALID,919.926,VALID,0,VALID,69.9601,VALID,314.588,VALID,23.229,VALID,145,VALID,0,
2017-01-25, 16:36:04,VALID,919.93,VALID,0,VALID,70.9816,VALID,315.125,VALID,23.2502,VALID,156,VALID,0.0316406,
2017-01-25, 16:37:04,VALID,919.93,VALID,0,VALID,70.4327,VALID,319.96,VALID,23.1899,VALID,157,VALID,0.564844,
2017-01-25, 16:38:04,VALID,919.921,VALID,0,VALID,72.5139,VALID,322.323,VALID,23.1527,VALID,145,VALID,0,
2017-01-25, 16:39:04,VALID,919.962,VALID,0,VALID,70.4709,VALID,321.142,VALID,23.2307,VALID,134,VALID,0.523828,
2017-01-25, 16:40:04,VALID,919.922,VALID,0,VALID,71.8583,VALID,317.703,VALID,23.229,VALID,117,VALID,0.269922,
2017-01-25, 16:41:04,VALID,919.901,VALID,0,VALID,72.8341,VALID,317.059,VALID,23.229,VALID,116,VALID,0.0808594,
2017-01-25, 16:42:04,VALID,919.923,VALID,0,VALID,72.6664,VALID,319.53,VALID,23.1899,VALID,97,VALID,0.627734,
2017-01-25, 16:43:04,VALID,919.918,VALID,0,VALID,73.4211,VALID,321.464,VALID,23.2112,VALID,95,VALID,1.14805,
2017-01-25, 16:44:04,VALID,919.921,VALID,0,VALID,71.5763,VALID,327.051,VALID,23.2077,VALID,142,VALID,0.0417969,
2017-01-25, 16:45:04,VALID,919.918,VALID,0,VALID,72.1785,VALID,325.009,VALID,23.229,VALID,155,VALID,0.00585938,
2017-01-25, 16:46:04,VALID,919.91,VALID,0,VALID,72.0565,VALID,316.737,VALID,23.2875,VALID,111,VALID,1.08242,
2017-01-25, 16:47:04,VALID,919.89,VALID,0,VALID,71.0502,VALID,307.819,VALID,23.2502,VALID,105,VALID,0.930859,
2017-01-25, 16:48:04,VALID,919.898,VALID,0,VALID,73.8861,VALID,300.943,VALID,23.2875,VALID,147,VALID,0.335938,
2017-01-25, 16:49:04,VALID,919.914,VALID,0,VALID,72.1404,VALID,294.604,VALID,23.2485,VALID,146,VALID,0.0289063,
2017-01-25, 16:50:04,VALID,919.937,VALID,0,VALID,74.5951,VALID,288.05,VALID,23.2272,VALID,123,VALID,0.00390625,
2017-01-25, 16:51:04,VALID,919.933,VALID,0,VALID,73.8252,VALID,281.926,VALID,23.307,VALID,141,VALID,0,
2017-01-25, 16:52:04,VALID,919.936,VALID,0,VALID,71.5763,VALID,277.306,VALID,23.2857,VALID,146,VALID,1.31289,
2017-01-25, 16:53:04,VALID,919.927,VALID,0,VALID,73.5965,VALID,274.512,VALID,23.1882,VALID,174,VALID,0.422656,
2017-01-25, 16:54:04,VALID,919.951,VALID,0,VALID,72.1328,VALID,273.76,VALID,23.2662,VALID,190,VALID,0,
2017-01-25, 16:55:04,VALID,919.938,VALID,0,VALID,71.8812,VALID,275.264,VALID,23.2857,VALID,157,VALID,0,
2017-01-25, 16:56:04,VALID,919.944,VALID,0,VALID,71.8736,VALID,278.702,VALID,23.1687,VALID,147,VALID,1.16055,
2017-01-25, 16:57:04,VALID,919.913,VALID,0,VALID,73.7718,VALID,283.107,VALID,23.1509,VALID,146,VALID,0,
2017-01-25, 16:58:04,VALID,919.93,VALID,0,VALID,74.5189,VALID,288.265,VALID,23.2272,VALID,145,VALID,0,
2017-01-25, 16:59:04,VALID,919.894,VALID,0,VALID,74.2978,VALID,293.207,VALID,23.3656,VALID,151,VALID,0.121094,
2017-01-25, 17:00:04,VALID,919.88,VALID,0,VALID,71.0731,VALID,298.901,VALID,23.4046,VALID,161,VALID,0,
2017-01-25, 17:01:04,VALID,919.867,VALID,0,VALID,70.6157,VALID,304.488,VALID,23.5412,VALID,140,VALID,0.00585938,
2017-01-25, 17:02:04,VALID,919.875,VALID,0,VALID,69.8839,VALID,308.249,VALID,23.5803,VALID,150,VALID,0,
2017-01-25, 17:03:04,VALID,919.875,VALID,0,VALID,70.1888,VALID,309.323,VALID,23.5608,VALID,144,VALID,0,
2017-01-25, 17:04:04,VALID,919.899,VALID,0,VALID,72.392,VALID,307.497,VALID,23.5412,VALID,151,VALID,0,
2017-01-25, 17:05:04,VALID,919.871,VALID,0,VALID,71.5305,VALID,303.091,VALID,23.6974,VALID,167,VALID,0,
2017-01-25, 17:06:04,VALID,919.872,VALID,0,VALID,70.6386,VALID,297.505,VALID,23.7755,VALID,160,VALID,0,
2017-01-25, 17:07:04,VALID,919.893,VALID,0,VALID,70.7148,VALID,291.273,VALID,23.7755,VALID,138,VALID,0,
2017-01-25, 17:08:04,VALID,919.875,VALID,0,VALID,71.8126,VALID,285.256,VALID,23.7755,VALID,116,VALID,0,
2017-01-25, 17:09:04,VALID,919.873,VALID,0,VALID,71.8126,VALID,279.992,VALID,23.7755,VALID,179,VALID,0,
2017-01-25, 17:10:04,VALID,919.9,VALID,0,VALID,70.8215,VALID,275.801,VALID,23.8145,VALID,162,VALID,0.79375,
2017-01-25, 17:11:04,VALID,919.91,VALID,0,VALID,70.2574,VALID,272.578,VALID,23.756,VALID,161,VALID,0.00625,
2017-01-25, 17:12:04,VALID,919.925,VALID,0,VALID,70.6996,VALID,270.537,VALID,23.7346,VALID,158,VALID,0.610547,
2017-01-25, 17:13:04,VALID,919.911,VALID,0,VALID,70.9664,VALID,269.677,VALID,23.7364,VALID,181,VALID,0.524609,
2017-01-25, 17:14:04,VALID,919.913,VALID,0,VALID,70.0135,VALID,270.429,VALID,23.795,VALID,164,VALID,0.614453,
2017-01-25, 17:15:04,VALID,919.918,VALID,0,VALID,70.1964,VALID,273.008,VALID,23.7737,VALID,132,VALID,0,
2017-01-25, 17:16:04,VALID,919.918,VALID,0,VALID,72.3691,VALID,276.231,VALID,23.834,VALID,151,VALID,0,
2017-01-25, 17:17:04,VALID,919.941,VALID,0,VALID,70.7148,VALID,279.454,VALID,23.795,VALID,155,VALID,1.2707,
2017-01-25, 17:18:04,VALID,919.941,VALID,0,VALID,73.0095,VALID,282.355,VALID,23.7169,VALID,174,VALID,0.639844,
2017-01-25, 17:19:04,VALID,919.904,VALID,0,VALID,69.0529,VALID,284.612,VALID,23.637,VALID,147,VALID,0.275391,
2017-01-25, 17:20:04,VALID,919.915,VALID,0,VALID,71.3704,VALID,285.793,VALID,23.6193,VALID,159,VALID,1.575,
2017-01-25, 17:21:04,VALID,919.922,VALID,0,VALID,70.9816,VALID,287.083,VALID,23.6193,VALID,143,VALID,1.49258,
2017-01-25, 17:22:04,VALID,919.903,VALID,0,VALID,73.3754,VALID,287.835,VALID,23.6193,VALID,155,VALID,0.957422,
2017-01-25, 17:23:04,VALID,919.905,VALID,0,VALID,72.0413,VALID,289.232,VALID,23.6388,VALID,161,VALID,1.21211,
2017-01-25, 17:24:04,VALID,919.891,VALID,0,VALID,71.1417,VALID,292.025,VALID,23.6566,VALID,158,VALID,0.932813,
2017-01-25, 17:25:04,VALID,919.893,VALID,0,VALID,71.6677,VALID,295.033,VALID,23.7169,VALID,150,VALID,0.387109,
2017-01-25, 17:26:04,VALID,919.89,VALID,0,VALID,71.8507,VALID,297.397,VALID,23.7542,VALID,156,VALID,0.28125,
2017-01-25, 17:27:04,VALID,919.87,VALID,0,VALID,71.7135,VALID,299.546,VALID,23.7542,VALID,137,VALID,0.00078125,
2017-01-25, 17:28:04,VALID,919.854,VALID,0,VALID,71.0884,VALID,300.513,VALID,23.795,VALID,157,VALID,1.13359,
2017-01-25, 17:29:04,VALID,919.86,VALID,0,VALID,69.4798,VALID,301.695,VALID,23.795,VALID,155,VALID,0.570313,
2017-01-25, 17:30:04,VALID,919.849,VALID,0,VALID,69.7238,VALID,304.811,VALID,23.8145,VALID,144,VALID,0.366797,
2017-01-25, 17:31:04,VALID,919.83,VALID,0,VALID,71.2027,VALID,308.464,VALID,23.8536,VALID,156,VALID,0.608203,
2017-01-25, 17:32:04,VALID,919.811,VALID,0,VALID,71.0045,VALID,313.191,VALID,23.8322,VALID,159,VALID,0,
2017-01-25, 17:33:04,VALID,919.836,VALID,0,VALID,69.9448,VALID,318.993,VALID,23.8926,VALID,159,VALID,1.01992,
2017-01-25, 17:34:04,VALID,919.793,VALID,0,VALID,69.4951,VALID,325.009,VALID,23.8517,VALID,150,VALID,1.56602,
2017-01-25, 17:35:04,VALID,919.791,VALID,0,VALID,70.2955,VALID,330.489,VALID,23.7737,VALID,160,VALID,1.5207,
2017-01-25, 17:36:04,VALID,919.779,VALID,0,VALID,69.5865,VALID,333.605,VALID,23.7737,VALID,160,VALID,1.26367,
2017-01-25, 17:37:04,VALID,919.765,VALID,0,VALID,69.4493,VALID,335.109,VALID,23.7737,VALID,163,VALID,1.07734,
2017-01-25, 17:38:04,VALID,919.758,VALID,0,VALID,70.9588,VALID,338.225,VALID,23.7755,VALID,161,VALID,1.30078,
2017-01-25, 17:39:04,VALID,919.755,VALID,0,VALID,71.6372,VALID,343.382,VALID,23.7932,VALID,149,VALID,0.00195313,
2017-01-25, 17:40:04,VALID,919.764,VALID,0,VALID,72.0184,VALID,347.035,VALID,23.9512,VALID,168,VALID,0,
2017-01-25, 17:41:04,VALID,919.74,VALID,0,VALID,70.6538,VALID,350.258,VALID,24.125,VALID,161,VALID,0.0046875,
2017-01-25, 17:42:04,VALID,919.744,VALID,0,VALID,69.4341,VALID,354.448,VALID,24.1659,VALID,154,VALID,0,
2017-01-25, 17:43:04,VALID,919.766,VALID,0,VALID,70.5318,VALID,357.886,VALID,24.2245,VALID,149,VALID,0,
2017-01-25, 17:44:04,VALID,919.707,VALID,0,VALID,67.391,VALID,360.895,VALID,24.2635,VALID,128,VALID,0.108984,
2017-01-25, 17:45:04,VALID,919.741,VALID,0,VALID,66.6973,VALID,364.118,VALID,24.2635,VALID,131,VALID,0.778906,
2017-01-25, 17:46:04,VALID,919.726,VALID,0,VALID,70.3565,VALID,366.697,VALID,24.2421,VALID,140,VALID,0.00585938,
2017-01-25, 17:47:04,VALID,919.714,VALID,0,VALID,69.4569,VALID,369.598,VALID,24.2031,VALID,146,VALID,0,
2017-01-25, 17:48:04,VALID,919.702,VALID,0,VALID,67.7188,VALID,371.531,VALID,24.125,VALID,150,VALID,0.0191406,
2017-01-25, 17:49:04,VALID,919.693,VALID,0,VALID,70.1735,VALID,373.036,VALID,24.1445,VALID,140,VALID,0.00429688,
2017-01-25, 17:50:04,VALID,919.682,VALID,0,VALID,70.4251,VALID,373.68,VALID,24.2617,VALID,184,VALID,0,
2017-01-25, 17:51:04,VALID,919.672,VALID,0,VALID,70.0287,VALID,375.185,VALID,24.3593,VALID,174,VALID,0,
2017-01-25, 17:52:04,VALID,919.681,VALID,0,VALID,69.2969,VALID,375.829,VALID,24.4978,VALID,139,VALID,0,
2017-01-25, 17:53:04,VALID,919.667,VALID,0,VALID,69.5256,VALID,374.432,VALID,24.5545,VALID,136,VALID,0,
2017-01-25, 17:54:04,VALID,919.66,VALID,0,VALID,69.3121,VALID,374.97,VALID,24.4764,VALID,162,VALID,0.443359,
2017-01-25, 17:55:04,VALID,919.681,VALID,0,VALID,69.7009,VALID,377.333,VALID,24.4959,VALID,164,VALID,0.00195313,
2017-01-25, 17:56:04,VALID,919.656,VALID,0,VALID,67.9475,VALID,380.127,VALID,24.4745,VALID,163,VALID,0,
2017-01-25, 17:57:04,VALID,919.638,VALID,0,VALID,68.6107,VALID,382.705,VALID,24.5545,VALID,185,VALID,0,
2017-01-25, 17:58:04,VALID,919.623,VALID,0,VALID,67.9628,VALID,383.78,VALID,24.7497,VALID,175,VALID,0,
2017-01-25, 17:59:04,VALID,919.617,VALID,0,VALID,68.6946,VALID,382.598,VALID,24.9431,VALID,168,VALID,0,
2017-01-25, 18:00:04,VALID,919.61,VALID,0,VALID,66.6134,VALID,379.267,VALID,25.1031,VALID,171,VALID,0,
2017-01-25, 18:01:04,VALID,919.577,VALID,0,VALID,67.1242,VALID,375.292,VALID,25.1226,VALID,200,VALID,0,
2017-01-25, 18:02:04,VALID,919.568,VALID,0,VALID,67.4444,VALID,371.317,VALID,24.9078,VALID,158,VALID,1.31016,
2017-01-25, 18:03:04,VALID,919.56,VALID,0,VALID,67.9323,VALID,368.631,VALID,24.6735,VALID,153,VALID,1.15078,
2017-01-25, 18:04:04,VALID,919.559,VALID,0,VALID,68.0924,VALID,366.589,VALID,24.5545,VALID,163,VALID,0.914453,
2017-01-25, 18:05:04,VALID,919.554,VALID,0,VALID,69.0986,VALID,364.763,VALID,24.455,VALID,153,VALID,0.819141,
2017-01-25, 18:06:04,VALID,919.538,VALID,0,VALID,68.7175,VALID,363.366,VALID,24.4178,VALID,145,VALID,1.37109,
2017-01-25, 18:07:04,VALID,919.529,VALID,0,VALID,69.6323,VALID,361.539,VALID,24.3769,VALID,167,VALID,0.653516,
2017-01-25, 18:08:04,VALID,919.486,VALID,0,VALID,69.8839,VALID,361.647,VALID,24.4959,VALID,148,VALID,0.05,
2017-01-25, 18:09:04,VALID,919.476,VALID,0,VALID,69.9677,VALID,361.969,VALID,24.4959,VALID,160,VALID,1.39414,
2017-01-25, 18:10:04,VALID,919.5,VALID,0,VALID,70.509,VALID,362.614,VALID,24.5155,VALID,164,VALID,0.078125,
2017-01-25, 18:11:04,VALID,919.509,VALID,0,VALID,70.8063,VALID,363.581,VALID,24.5917,VALID,140,VALID,0.0753906,
2017-01-25, 18:12:04,VALID,919.505,VALID,0,VALID,68.4811,VALID,365.515,VALID,24.6716,VALID,164,VALID,0.00585938,
2017-01-25, 18:13:04,VALID,919.479,VALID,0,VALID,68.7251,VALID,367.986,VALID,24.7479,VALID,107,VALID,0,
2017-01-25, 18:14:04,VALID,919.478,VALID,0,VALID,69.1291,VALID,371.424,VALID,24.7693,VALID,155,VALID,0.676953,
2017-01-25, 18:15:04,VALID,919.498,VALID,0,VALID,67.2462,VALID,375.185,VALID,24.7107,VALID,150,VALID,0,
2017-01-25, 18:16:04,VALID,919.448,VALID,0,VALID,69.2282,VALID,377.871,VALID,24.7088,VALID,134,VALID,0.338281,
2017-01-25, 18:17:04,VALID,919.445,VALID,0,VALID,69.3578,VALID,380.986,VALID,24.8064,VALID,145,VALID,0.090625,
2017-01-25, 18:18:04,VALID,919.378,VALID,0,VALID,66.7964,VALID,382.705,VALID,24.8864,VALID,139,VALID,0.758594,
2017-01-25, 18:19:04,VALID,919.389,VALID,0,VALID,67.6654,VALID,381.416,VALID,24.7497,VALID,132,VALID,1.88281,
2017-01-25, 18:20:04,VALID,919.378,VALID,0,VALID,69.1825,VALID,379.052,VALID,24.6502,VALID,148,VALID,0.403125,
2017-01-25, 18:21:04,VALID,919.353,VALID,0,VALID,67.1242,VALID,375.292,VALID,24.6698,VALID,151,VALID,1.81016,
2017-01-25, 18:22:04,VALID,919.354,VALID,0,VALID,69.4722,VALID,370.242,VALID,24.7283,VALID,177,VALID,0,
2017-01-25, 18:23:04,VALID,919.356,VALID,0,VALID,66.9488,VALID,364.763,VALID,24.904,VALID,176,VALID,1.04648,
2017-01-25, 18:24:04,VALID,919.36,VALID,0,VALID,65.691,VALID,359.283,VALID,24.9626,VALID,147,VALID,0.714844,
2017-01-25, 18:25:04,VALID,919.342,VALID,0,VALID,65.8892,VALID,353.267,VALID,24.9626,VALID,139,VALID,1.10586,
2017-01-25, 18:26:04,VALID,919.326,VALID,0,VALID,64.6085,VALID,346.498,VALID,24.904,VALID,144,VALID,0.582812,
2017-01-25, 18:27:04,VALID,919.347,VALID,0,VALID,68.3287,VALID,340.803,VALID,24.9431,VALID,132,VALID,0.0078125,
2017-01-25, 18:28:04,VALID,919.355,VALID,0,VALID,66.3618,VALID,332.745,VALID,24.9821,VALID,153,VALID,0,
2017-01-25, 18:29:04,VALID,919.312,VALID,0,VALID,67.0098,VALID,325.869,VALID,24.9626,VALID,135,VALID,0.588672,
2017-01-25, 18:30:04,VALID,919.314,VALID,0,VALID,66.1179,VALID,321.786,VALID,25.0602,VALID,153,VALID,0.040625,
2017-01-25, 18:31:04,VALID,919.33,VALID,0,VALID,67.1394,VALID,319.423,VALID,25.0798,VALID,134,VALID,0,
2017-01-25, 18:32:04,VALID,919.304,VALID,0,VALID,67.208,VALID,318.993,VALID,25.0798,VALID,158,VALID,0.0882813,
2017-01-25, 18:33:04,VALID,919.283,VALID,0,VALID,65.7748,VALID,319.745,VALID,25.0407,VALID,124,VALID,1.10352,
2017-01-25, 18:34:04,VALID,919.311,VALID,0,VALID,65.2259,VALID,320.712,VALID,24.9821,VALID,151,VALID,0.189063,
2017-01-25, 18:35:04,VALID,919.285,VALID,0,VALID,69.0758,VALID,323.398,VALID,24.984,VALID,152,VALID,0,
2017-01-25, 18:36:04,VALID,919.264,VALID,0,VALID,67.9932,VALID,325.547,VALID,25.1402,VALID,128,VALID,0,
2017-01-25, 18:37:04,VALID,919.263,VALID,0,VALID,64.5475,VALID,325.654,VALID,25.2965,VALID,173,VALID,0,
2017-01-25, 18:38:04,VALID,919.278,VALID,0,VALID,64.1282,VALID,325.439,VALID,25.4117,VALID,170,VALID,0,
2017-01-25, 18:39:04,VALID,919.256,VALID,0,VALID,65.0354,VALID,325.869,VALID,25.5503,VALID,166,VALID,0,